Rbgn^[z[y[W
メイン
   新天体発見情報
     Comet P/2020 T3 (PANSTARRS)
投稿するにはまず登録を

フラット表示 前のトピック | 次のトピック
投稿者 スレッド
佐藤裕久
投稿日時: 2020-11-2 22:47
モデレータ
登録日: 2005-6-12
居住地: 日本
投稿: 2683
オンライン
Comet P/2020 T3 (PANSTARRS)

Y. RamanjoolooとR. Weryk (ハワイ大学, 天文学研究所)の通報によると、10月10日UT、Haleakala
にあるPan-STARRS1 1.8-m Ritchey-Chretien反射望遠鏡で得た4枚の45秒w-バンド画像から彗星を
発見した。拡散状で1".1のシーイングで2".0のコマ(半値全幅:FWHM)とp.a. 15-45°にわたって広い
6"の尾があった。
発見観測は、1枚のPan-STARRS1の観測は9月9日の露出から見つけられ、9月13日の観測のいくつかは、
HaleakalaにあるPan-STARRS2 1.8-m Ritchey-Chretien反射望遠鏡で得た画像から見つけられた。
10月11日からは2枚のPan-STARRS1の観測があった。

彗星機能の報告は次の通り:

OC   Date        Reporter           Coma    Tail    PA          Exposures
J04  2020-10-13 M. Micheli         5.0"       5"    45
F51  2020-10-14 Y. Ramanjooloo     2.5"       3"    65
E10  2020-10-15 P. Breitenstein      4"       7"    40            6x100s
E10  2020-10-16 P. Breitenstein      4"      20"    45            9x100s
L01  2020-10-18 K. Korlevic        fuzzy     20"    
568  2020-10-19 R. Weryk            0.8"     20"    45  
G96  2020-10-22 D. Rankin            8"       8"    45  
F51  2020-10-22 R. Weryk             4"      10"    45            4x90s

発見位置は次のとおり、

     2020 UT             R.A. (2000) Decl.       Mag.
     Sept. 9.45376    0 37 22.82   -11 14 55.7   21.3
          13.45849    0 35 26.30   -11 42 47.2   20.7
          13.45913    0 35 26.29   -11 42 47.2   20.2
          13.47067    0 35 25.85   -11 42 51.8   20.9
          13.48223    0 35 25.44   -11 42 56.9   21.0
          13.49383    0 35 25.04   -11 43 01.8   21.7
     Oct. 10.36712    0 14 09.76   -14 06 47.5   21.3
          10.37873    0 14 09.12   -14 06 49.1   21.3
          10.39039    0 14 08.46   -14 06 50.4   21.4
          10.40203    0 14 07.79   -14 06 51.8   21.4
          11.40510    0 13 15.38   -14 08 47.3   20.8
          11.41712    0 13 14.70   -14 08 48.5   21.3

MPCの楕円軌道要素、位置推算表は次のとおり、

Orbital elements:
    P/2020 T3 (PANSTARRS)                                                       
Epoch 2021 Jan. 26.0 TT = JDT 2459240.5                                         
T 2021 Jan. 20.46213 TT                                 Rudenko                 
q   1.4365727            (2000.0)            P               Q                  
n   0.14943039     Peri.  357.04234     +0.32415316     -0.93809452             
a   3.5170356      Node    74.01906     +0.87052779     +0.24528562             
e   0.5915388      Incl.    7.29553     +0.37027840     +0.24456828             
P   6.60                                                                        
From 61 observations 2020 Sept. 9-Oct. 22, mean residual 0".3.                  
                                                                                
    P/2020 T3 (PANSTARRS)                                                       
Epoch 2027 Aug. 23.0 TT = JDT 2461640.5                                         
T 2027 Aug. 27.58681 TT                                 Rudenko                 
q   1.4332723            (2000.0)            P               Q                  
n   0.14962871     Peri.  357.13415     +0.32360017     -0.93828363             
a   3.5139272      Node    73.96149     +0.87062291     +0.24473372             
e   0.5921167      Incl.    7.29846     +0.37053835     +0.24439565             
P   6.59                                                                        
From 61 observations 2020 Sept. 9-Oct. 22, mean residual 0".3.                  
                                                                                
    P/2020 T3 (PANSTARRS)                                                       
Epoch 2020 Dec. 17.0 TT = JDT 2459200.5                                         
T 2021 Jan. 20.46297 TT                                 Rudenko                 
q   1.4365726            (2000.0)            P               Q                  
n   0.14945196     Peri.  357.04283     +0.32414508     -0.93809730             
a   3.5166971      Node    74.01906     +0.87052991     +0.24527811             
e   0.5914995      Incl.    7.29553     +0.37028050     +0.24456511             
P   6.59                                                                        
From 61 observations 2020 Sept. 9-Oct. 22, mean residual 0".3.                  
                                                                                
Ephemeris:
Date    TT    R. A. (2000) Decl.     Delta      r    Elong.  Phase   m1
2020 09 23    00 29 07.2 -12 47 28   0.9201  1.9079   165.3     7.7  20.1
...
2020 10 08    00 16 15.2 -14 00 45   0.8496  1.8148   157.9    11.9  19.7
...
2020 10 16    00 09 25.3 -14 12 45   0.8306  1.7673   150.4    16.2  19.6
...
2020 10 22    00 05 02.5 -14 05 29   0.8239  1.7327   144.4    19.5  19.5
2020 10 23    00 04 24.2 -14 02 49   0.8234  1.7271   143.4    20.1  19.5
2020 10 24    00 03 47.8 -13 59 44   0.8230  1.7215   142.4    20.7  19.5
...
2020 10 30    00 00 51.5 -13 32 27   0.8237  1.6885   136.5    23.9  19.4
...
2020 11 07    23 59 05.2 -12 33 11   0.8315  1.6466   129.0    27.9  19.3
...
2020 11 22    00 03 15.7 -09 37 47   0.8621  1.5757   116.7    34.1  19.3

(MPEC 2020-U197、CBET 4872)

フラット表示 前のトピック | 次のトピック

題名 投稿者 日時
 » Comet P/2020 T3 (PANSTARRS) 佐藤裕久 2020-11-2 22:47

投稿するにはまず登録を
 
© 1999 Tsutomu Seki.